Location: Niedergestelen
(46.3129°N, 7.7822°E)
Time: 13:00:47
(UTC+00:00)

USA 238 DEB - Pass Details

Date: 01 December 2020
Orbit: 996 x 1216 km, 63.4° (Epoch: 22 January)

Event Time Altitude Azimuth Distance (km) Brightness Sun altitude
Rises 18:51:21 0° 229° (SW) 3,725 7.2 -31.6°
Reaches altitude 10° 18:53:56 10° 232° (SW) 2,794 6.4 -32.0°
Maximum altitude 19:00:27 65° 314° (NW) 1,146 3.8 -33.1°
Enters shadow 19:00:38 65° 323° (NW) 1,149 3.8 -33.2°
